Location: Proctor
(47.8934°N, 114.3048°W)
Time: 17:17:49
(UTC+00:00)

Transit 4A - Pass Details

Date: 15 May 2025
Orbit: 866 x 975 km, 66.8° (Epoch: 13 June)

Event Time Altitude Azimuth Distance (km) Brightness Sun altitude
Rises 05:31:04 0° 263° (W) 3,661 11.3 -17.8°
Reaches altitude 10° 05:34:14 10° 278° (W) 2,707 10.8 -18.0°
Maximum altitude 05:39:09 23° 329° (NNW) 1,910 10.4 -18.4°
Drops below altitude 10° 05:44:01 10° 21° (NNE) 2,666 10.9 -18.8°
Sets 05:47:07 0° 36° (NE) 3,593 11.4 -19.0°
